Flag for South Korea Weather past 2 weeks in Incheon, South Korea

Now
77 °F

Scattered clouds.


Feels Like: 79 °F
Forecast: 70 / 81 °F
Wind: 9 mph from Northwest

Location: Incheon International Airport

Current Time: Sep 3, 2015 at 12:29:39 PM

Latest Report: Sep 3, 2015 at 12:00 PM


Visibility: N/A

Pressure: 29.86 "Hg

Humidity: 61%

Dew point: 63 °F

Location of IncheonLocation

Historic Weather in Incheon — Graph

°F

Incheon temperature yesterday

Maximum temperature yesterday: 79 °F (at 12:00 PM)
Minimum temperature yesterday: 72 °F (at 2:30 AM)
Average temperature yesterday: 75 °F

Past Weeks' High & Low Weather Summary

 TemperatureHumidityPressure
High86 °F (Aug 24, 1:30 PM)88% (Aug 30, 4:30 AM)29.95 "Hg (Aug 30, 4:30 AM)
Low68 °F (Aug 26, 6:30 AM)32% (Aug 27, 1:00 PM)29.56 "Hg (Aug 25, 12:00 PM)
Average76 °F67%29.77 "Hg
* Reported Aug 19 11:00 AM — Sep 3 11:00 AM, Incheon, Weather by CustomWeather, © 2015

Note: Actual official high and low records may vary slightly from our data, if they occured in-between our weather recording intervals... More about our weather records

Advertising

Incheon weather history for previous 24 hours

 ConditionsComfort  
Time TempWeatherWind HumidityBarometerVisibility
11:00 AM
Thu, Sep 3
75 °FScattered clouds.8 mph69%29.89 "HgN/A
10:30 AM75 °FScattered clouds.7 mph69%29.89 "HgN/A
10:00 AM75 °FScattered clouds.8 mph65%29.89 "HgN/A
9:30 AM75 °FScattered clouds.8 mph65%29.89 "HgN/A
9:00 AM75 °FScattered clouds.7 mph69%29.89 "HgN/A
8:30 AM73 °FScattered clouds.6 mph78%29.89 "Hg6 mi
8:00 AM72 °FPassing clouds.3 mph78%29.86 "HgN/A
7:30 AM72 °FBroken clouds.3 mph78%29.86 "Hg4 mi
6:30 AM70 °FPartly cloudy.2 mph83%29.86 "Hg6 mi
6:00 AM70 °FPartly cloudy.2 mph83%29.86 "Hg5 mi
5:30 AM68 °FLight rain. Mostly cloudy.2 mph88%29.83 "Hg4 mi
5:00 AM70 °FLight rain. Mostly cloudy.3 mph83%29.83 "Hg4 mi
4:30 AM70 °FPassing clouds.5 mph83%29.83 "Hg6 mi
4:00 AM70 °FPassing clouds.3 mph83%29.83 "Hg6 mi
3:30 AM70 °FPassing clouds.3 mph83%29.86 "HgN/A
3:00 AM70 °FPassing clouds.2 mph83%29.86 "HgN/A
2:30 AM72 °FPassing clouds.1 mph78%29.86 "HgN/A
2:00 AM70 °FPassing clouds.1 mph83%29.86 "HgN/A
1:30 AM70 °FPassing clouds.2 mph83%29.86 "HgN/A
12:30 AM72 °FPassing clouds.2 mph78%29.86 "HgN/A
12:00 AM73 °FPassing clouds.6 mph74%29.86 "HgN/A
11:30 PM
Wed, Sep 2
72 °FPassing clouds.7 mph78%29.86 "HgN/A
11:00 PM73 °FPassing clouds.7 mph74%29.86 "HgN/A
10:30 PM73 °FPassing clouds.6 mph74%29.86 "HgN/A
10:00 PM73 °FMostly cloudy.6 mph74%29.86 "HgN/A
9:30 PM73 °FPartly cloudy.6 mph69%29.86 "HgN/A
9:00 PM73 °FPartly cloudy.6 mph69%29.86 "HgN/A
8:30 PM73 °FPartly cloudy.6 mph69%29.86 "HgN/A
8:00 PM73 °FBroken clouds.5 mph69%29.86 "HgN/A
7:30 PM73 °FBroken clouds.7 mph69%29.86 "HgN/A
7:00 PM75 °FPartly sunny.7 mph61%29.86 "HgN/A
6:30 PM75 °FPartly sunny.6 mph61%29.86 "HgN/A
6:00 PM75 °FPartly sunny.7 mph57%29.86 "HgN/A
5:30 PM75 °FPartly sunny.7 mph57%29.86 "HgN/A
5:00 PM75 °FScattered clouds.9 mph61%29.86 "HgN/A
4:30 PM79 °FScattered clouds.8 mph51%29.86 "HgN/A
4:00 PM79 °FScattered clouds.10 mph54%29.86 "HgN/A
3:30 PM79 °FScattered clouds.10 mph54%29.86 "HgN/A
3:00 PM77 °FScattered clouds.9 mph61%29.86 "HgN/A
2:30 PM77 °FBroken clouds.14 mph65%29.86 "HgN/A
2:00 PM77 °FMore clouds than sun.12 mph69%29.86 "HgN/A
1:30 PM77 °FMore clouds than sun.10 mph69%29.86 "HgN/A
12:30 PM77 °FMore clouds than sun.12 mph69%29.86 "HgN/A
12:00 PM79 °FMore clouds than sun.13 mph61%29.86 "HgN/A
Weather by CustomWeather, © 2015

See weather overviewHow to use our weather pages